Regional Weather Roundup
Issued by NWS

Home | Current Version | Previous Version | Graphics & Text | Print | Product List | Glossary On
Versions: 1 2 3 4 5 6 7 8 9 10 11 12 13 14 15 16 17 18 19 20 21 22 23 24 25 26 27 28 29 30 31 32 33 34 35 36 37 38 39 40 41 42 43 44 45 46 47 48 49 50
000
ASUS43 KMPX 052010
RWRMN
WEATHER ROUNDUP FOR MINNESOTA
NATIONAL WEATHER SERVICE TWIN CITIES/CHANHASSEN MN
300 PM CDT TUE MAY 05 2015


NOTE: "FAIR" INDICATES FEW OR NO CLOUDS BELOW 12,000 FEET WITH NO
SIGNIFICANT WEATHER AND/OR OBSTRUCTIONS TO VISIBILITY. N/A MEANS
CURRENT SKY AND/OR WEATHER CONDITIONS ARE NOT AVAILABLE.

MNZ060>063-068>070-052100-
   Twin Cities Metro

CITY           SKY/WX    TMP DP  RH WIND       PRES   REMARKS
TWIN CITIES    PTSUNNY   67  47  48 S18G24    30.17S
ST PAUL        CLOUDY    68  45  43 SE16      30.17S
CRYSTAL        CLOUDY    70  43  37 SE18      30.15S
BLAINE         MOSUNNY   73  45  35 SE15G22   30.16S
LAKEVILLE      CLOUDY    61  50  67 E12G18    30.17S
EDEN PRAIRIE   CLOUDY    65  50  58 SE18G24   30.16S
SOUTH ST PAUL  PTSUNNY   67  41  38 SE12G21   30.17S
LAKE ELMO      PTSUNNY   70  43  37 SE13G23   30.18F
$$
MNZ001>005-007-008-013>017-022>024-027-028-052100-
   Northwest Minnesota

CITY           SKY/WX    TMP DP  RH WIND       PRES   REMARKS
BEMIDJI        SUNNY     73  27  18 SE9G16    30.12F
HALLOCK        SUNNY     79   1   5 S16G29    30.04F
ROSEAU         SUNNY     73  16  11 SE12G23   30.09F
WARROAD        SUNNY     72  30  21 S17G24    30.11F
THIEF RVR FALL SUNNY     73  21  14 S14G28    30.08F
CROOKSTON      SUNNY     75  23  14 S13G23    30.06F
FOSSTON        SUNNY     75  18  11 SE12G18   30.09F
DETROIT LAKES  SUNNY     73  30  20 S18G24    30.10F
MOORHEAD       SUNNY     75  21  13 SE20G29   30.05F
PARK RAPIDS    SUNNY     75  29  18 S16G22    30.10F
MAHNOMEN       FAIR      74  25  16 S15G25    30.08F
$$
MNZ006-009>011-018-025>026-052100-
   North Central Minnesota

CITY           SKY/WX    TMP DP  RH WIND       PRES   REMARKS
BAUDETTE       SUNNY     73  24  16 S10G22    30.11F
FLAG ISLAND    SUNNY     64  34  32 CALM      30.11F
INTL FALLS     SUNNY     72  22  15 SE13G21   30.13F
WASKISH        SUNNY     73  28  19 SE13G25   30.12F
BIG FORK       SUNNY     75  23  14 S8G20     30.14F
LONGVILLE      SUNNY     73  30  20 S14G22    30.14F
GRAND RAPIDS   SUNNY     72  27  18 S9G21     30.15F
CRANE LAKE     SUNNY     70  14  11 SE8G18    30.18F
ORR            SUNNY     73  12   9 S8G25     30.14F
COOK           SUNNY     72  23  16 SE10G20   30.17F
WALKER         FAIR      71  30  21 SE9G18    30.12F
$$
MNZ012-019>021-037-052100-
   Northeast Minnesota

CITY           SKY/WX    TMP DP  RH WIND       PRES   REMARKS
DULUTH         SUNNY     69  28  21 E12       30.19F
ELY            SUNNY     70  18  13 S7G20     30.19F
HIBBING        SUNNY     72  22  15 S10G22    30.17F
EVELETH        SUNNY     72  27  18 S7G18     30.19F
DULUTH HARBOR    N/A     48  36  61 E3        30.21F
TWO HARBORS    SUNNY     72  39  30 E13       30.19F
SILVER BAY     SUNNY     68  27  21 E10       30.20F
GRAND MARAIS     N/A     52  30  43 NE3       30.25F
G MARAIS ARPRT SUNNY     63  21  20 SE8       30.27F
$$
MNZ029>031-032-039>041-046>048-054>057-064-052100-
   West Central Minnesota

CITY           SKY/WX    TMP DP  RH WIND       PRES   REMARKS
FERGUS FALLS   SUNNY     75  37  25 SE16G22   30.06F
WHEATON        MOSUNNY   75  45  33 SE24G31   30.04F
MORRIS         PTSUNNY   75  46  35 SE24      30.05F
ALEXANDRIA     SUNNY     72  44  36 SE21G31   30.10F
ELBOW LAKE     FAIR      76  41  28 SE13G28   30.06F
WADENA         SUNNY     73  37  27 SE17G26   30.10F
GLENWOOD       MOSUNNY   73  46  38 E17G23    30.10F
APPLETON       MOSUNNY   75  46  35 SE18G25   30.05F
BENSON         CLOUDY    73  45  35 S13G21    30.07F
ORTONVILLE     CLOUDY    72  50  46 SE20G28   30.04F
MADISON        MOSUNNY   73  52  46 SE25G31   30.06F
WILLMAR        FAIR      72  54  53 SE23G33   30.11S
$$
MNZ033>034-036-042>043-049>051-058-059-052100-
   Central Minnesota

CITY           SKY/WX    TMP DP  RH WIND       PRES   REMARKS
ST CLOUD       SUNNY     74  44  34 SE20G26   30.12F
SAUK CENTRE    FAIR      73  47  38 SE14G24   30.11F
PAYNESVILLE    MOSUNNY   70  45  40 E20G28    30.12S
AITKIN         SUNNY     73  25  16 S13G20    30.13F
PINE RIVER     SUNNY     72  39  30 SE15G22   30.16F
BRAINERD       SUNNY     72  35  25 S8G22     30.14F
STAPLES        SUNNY     72  36  26 SE14G20   30.12F
LONG PRAIRIE   FAIR      72  45  37 E18G25    30.11F
LITTLE FALLS   SUNNY     73  37  27 SE18      30.12F
LITCHFIELD     PTSUNNY   66  52  59 SE13G21   30.14S
BUFFALO        CLOUDY    69  44  40 SE15G22   30.16R
MAPLE LAKE     CLOUDY    72  48  43 SE9G24    30.15S
$$
MNZ037-044-045-052-053-052100-
   East Central Minnesota

CITY           SKY/WX    TMP DP  RH WIND       PRES   REMARKS
PRINCETON      SUNNY     75  39  27 E14G22    30.15S
MORA           SUNNY     70  36  28 S12       30.17F
CAMBRIDGE      SUNNY     75  50  41 S14       30.14F
RUSH CITY      SUNNY     74  37  26 SE12G18   30.16F
MOOSE LAKE     SUNNY     73  34  23 S8        30.15F
HINCKLEY       FAIR      73  36  25 S13       30.16F
CLOQUET        SUNNY     70  27  19 E9G16     30.17F
MCGREGOR       SUNNY     73  32  21 S15       30.16F
$$
MNZ071>073-080-081-089-090-097-098-052100-
   Southwest Minnesota

CITY           SKY/WX    TMP DP  RH WIND       PRES   REMARKS
MONTEVIDEO     MOSUNNY   73  54  49 S25G31    30.08S
GRANITE FALLS  CLOUDY    65  55  69 E16G24    30.10F
CANBY          PTSUNNY   72  54  52 E17G24    30.06F
MARSHALL       PTSUNNY   66  52  59 S18G25    30.08S
REDWOOD FALLS  CLOUDY    64  53  67 SE14      30.10F
OLIVIA         PTSUNNY   61  48  63 SE16G25   30.11F
PIPESTONE      PTSUNNY   64  55  72 SE14G21   30.07S
WINDOM         CLOUDY    57  55  94 E12       30.11F
WORTHINGTON    CLOUDY    59  54  82 SE17      30.09F
JACKSON        CLOUDY    59  54  82 SE15      30.12S FOG
TRACY          CLOUDY    65  56  74 SE16G23   30.09F
SLAYTON        CLOUDY    60  57  92 E17       30.10S
$$
MNZ065>067-074>077-082>085-091>093-052100-
   South Central Minnesota

CITY           SKY/WX    TMP DP  RH WIND       PRES   REMARKS
MANKATO        CLOUDY    57  54  88 SE18      30.15F
NEW ULM        CLOUDY    61  54  77 SE14      30.13F
ST JAMES       LGT RAIN  59  54  82 E17       30.14S
FAIRMONT       CLOUDY    55  50  82 E13G20    30.12F
GLENCOE        CLOUDY    63  54  72 E18       30.15S
FARIBAULT      CLOUDY    63  52  67 SE20      30.17F
OWATONNA       LGT RAIN  61  52  72 SE13G23   30.17F
WASECA         RAIN      55  52  88 E12       30.17F
ALBERT LEA     DRIZZLE   54  54 100 SE10      30.16F
$$
MNZ078>079-086>088-094>096-052100-
   Southeast Minnesota

CITY           SKY/WX    TMP DP  RH WIND       PRES   REMARKS
ROCHESTER      CLOUDY    55  50  83 SE20      30.20F
RED WING       PTSUNNY   66  45  45 SE14G21   30.18S
STANTON        CLOUDY    64  49  59 E7G18     30.16F
DODGE CENTER   CLOUDY    59  52  77 SE20      30.18S
WINONA         CLOUDY    59  48  67 SE13      30.21F
AUSTIN         LGT RAIN  54  52  94 E14       30.17F
PRESTON        CLOUDY    51  49  93 SE13      30.21S FOG
$$
ABBREVIATIONS USED IN REMARKS
   TC - TEMPERATURES IN CELSIUS
  WCI - WIND CHILL INDEX
   HX - HEAT INDEX
  VSB - VISIBILITY
$$



USA.gov is the U.S. government's official web portal to all federal, state and local government web resources and services.